Time,TemperatureF,DewpointF,PressureIn,WindDirection,WindDirectionDegrees,WindSpeedMPH,WindSpeedGustMPH,Humidity,HourlyPrecipIn,Conditions,Clouds,dailyrainin,SoftwareType,DateUTC
2013-01-26 00:03:00,31.0,29.0,30.28,NW,321,10.0,-999.0,91,-99.99,,,-99.99,,2013-01-26 05:03:00,
2013-01-26 00:12:00,31.0,29.0,30.28,NW,321,10.0,-999.0,91,-99.99,,,-99.99,,2013-01-26 05:12:00,
2013-01-26 00:23:00,31.0,29.0,30.28,NW,323,9.0,-999.0,92,-99.99,,,-99.99,,2013-01-26 05:23:00,
2013-01-26 00:33:00,31.0,29.0,30.28,NNE,15,7.0,-999.0,92,-99.99,,,-99.99,,2013-01-26 05:33:00,
2013-01-26 00:42:00,31.0,29.0,30.28,NNE,15,7.0,-999.0,92,-99.99,,,-99.99,,2013-01-26 05:42:00,
2013-01-26 00:52:00,31.0,29.0,30.27,NW,306,11.0,-999.0,92,-99.99,,,-99.99,,2013-01-26 05:52:00,
2013-01-26 01:03:00,30.0,28.0,30.28,WNW,288,9.0,-999.0,93,-99.99,,,-99.99,,2013-01-26 06:03:00,
2013-01-26 01:12:00,30.0,28.0,30.28,WNW,288,9.0,-999.0,93,-99.99,,,-99.99,,2013-01-26 06:12:00,
2013-01-26 01:21:00,30.0,28.0,30.27,West,279,14.0,-999.0,93,-99.99,,,-99.99,,2013-01-26 06:21:00,
2013-01-26 01:32:00,30.0,28.0,30.27,WNW,289,12.0,-999.0,94,-99.99,,,-99.99,,2013-01-26 06:32:00,
2013-01-26 01:42:00,30.0,28.0,30.27,WNW,289,12.0,-999.0,94,-99.99,,,-99.99,,2013-01-26 06:42:00,
2013-01-26 01:52:00,30.0,28.0,30.27,West,272,12.0,-999.0,92,-99.99,,,-99.99,,2013-01-26 06:52:00,
2013-01-26 02:02:00,30.0,28.0,30.27,WNW,286,13.0,-999.0,92,-99.99,,,-99.99,,2013-01-26 07:02:00,
2013-01-26 02:12:00,30.0,28.0,30.27,WNW,286,13.0,-999.0,92,-99.99,,,-99.99,,2013-01-26 07:12:00,
2013-01-26 02:22:00,30.0,28.0,30.27,WNW,286,13.0,-999.0,92,-99.99,,,-99.99,,2013-01-26 07:22:00,
2013-01-26 02:33:00,30.0,27.0,30.27,West,280,16.0,-999.0,90,-99.99,,,-99.99,,2013-01-26 07:33:00,
2013-01-26 02:42:00,30.0,27.0,30.27,West,280,16.0,-999.0,90,-99.99,,,-99.99,,2013-01-26 07:42:00,
2013-01-26 02:52:00,30.0,27.0,30.27,West,280,16.0,-999.0,90,-99.99,,,-99.99,,2013-01-26 07:52:00,
2013-01-26 03:02:00,30.0,27.0,30.27,WNW,294,16.0,-999.0,90,-99.99,,,-99.99,,2013-01-26 08:02:00,
2013-01-26 03:11:00,30.0,27.0,30.27,WNW,294,16.0,-999.0,90,-99.99,,,-99.99,,2013-01-26 08:11:00,
2013-01-26 03:22:00,30.0,27.0,30.27,WNW,288,15.0,-999.0,89,-99.99,,,-99.99,,2013-01-26 08:22:00,
2013-01-26 03:32:00,30.0,27.0,30.27,WNW,293,14.0,-999.0,89,-99.99,,,-99.99,,2013-01-26 08:32:00,
2013-01-26 03:42:00,30.0,27.0,30.27,WNW,293,14.0,-999.0,89,-99.99,,,-99.99,,2013-01-26 08:42:00,
2013-01-26 03:53:00,30.0,27.0,30.27,NNW,328,15.0,-999.0,89,-99.99,,,-99.99,,2013-01-26 08:53:00,
2013-01-26 04:02:00,30.0,27.0,30.26,West,276,18.0,-999.0,88,-99.99,,,-99.99,,2013-01-26 09:02:00,
2013-01-26 04:11:00,30.0,27.0,30.26,West,276,18.0,-999.0,88,-99.99,,,-99.99,,2013-01-26 09:11:00,
2013-01-26 04:22:00,29.0,26.0,30.26,West,281,19.0,-999.0,87,-99.99,,,-99.99,,2013-01-26 09:22:00,
2013-01-26 04:32:00,29.0,25.0,30.26,NNW,327,17.0,-999.0,86,-99.99,,,-99.99,,2013-01-26 09:32:00,
2013-01-26 04:42:00,29.0,25.0,30.26,NNW,327,17.0,-999.0,86,-99.99,,,-99.99,,2013-01-26 09:42:00,
2013-01-26 04:51:00,29.0,25.0,30.26,West,271,15.0,-999.0,86,-99.99,,,-99.99,,2013-01-26 09:51:00,
2013-01-26 05:01:00,29.0,25.0,30.26,NNW,327,14.0,-999.0,86,-99.99,,,-99.99,,2013-01-26 10:01:00,
2013-01-26 05:12:00,29.0,25.0,30.26,NNW,327,14.0,-999.0,86,-99.99,,,-99.99,,2013-01-26 10:12:00,
2013-01-26 05:21:00,28.0,24.0,30.27,WNW,292,15.0,-999.0,85,-99.99,,,-99.99,,2013-01-26 10:21:00,
2013-01-26 05:32:00,28.0,24.0,30.27,NNW,329,12.0,-999.0,86,-99.99,,,-99.99,,2013-01-26 10:32:00,
2013-01-26 05:42:00,28.0,24.0,30.27,NNW,329,12.0,-999.0,86,-99.99,,,-99.99,,2013-01-26 10:42:00,
2013-01-26 05:52:00,28.0,24.0,30.27,WNW,291,14.0,-999.0,85,-99.99,,,-99.99,,2013-01-26 10:52:00,
2013-01-26 06:01:00,28.0,24.0,30.29,WNW,303,14.0,-999.0,86,-99.99,,,-99.99,,2013-01-26 11:01:00,
2013-01-26 06:12:00,28.0,24.0,30.29,WNW,303,14.0,-999.0,86,-99.99,,,-99.99,,2013-01-26 11:12:00,
2013-01-26 06:22:00,27.0,23.0,30.29,WNW,282,11.0,-999.0,86,-99.99,,,-99.99,,2013-01-26 11:22:00,
2013-01-26 06:32:00,27.0,23.0,30.29,NW,323,13.0,-999.0,86,-99.99,,,-99.99,,2013-01-26 11:32:00,
2013-01-26 06:42:00,27.0,23.0,30.29,NW,323,13.0,-999.0,86,-99.99,,,-99.99,,2013-01-26 11:42:00,
2013-01-26 06:52:00,27.0,24.0,30.29,WNW,302,14.0,-999.0,87,-99.99,,,-99.99,,2013-01-26 11:52:00,
2013-01-26 07:02:00,27.0,24.0,30.30,NNW,340,11.0,-999.0,88,-99.99,,,-99.99,,2013-01-26 12:02:00,
2013-01-26 07:12:00,27.0,24.0,30.30,NNW,340,11.0,-999.0,88,-99.99,,,-99.99,,2013-01-26 12:12:00,
2013-01-26 07:23:00,27.0,24.0,30.30,NNW,340,11.0,-999.0,88,-99.99,,,-99.99,,2013-01-26 12:23:00,
2013-01-26 07:33:00,27.0,24.0,30.30,WNW,286,14.0,-999.0,87,-99.99,,,-99.99,,2013-01-26 12:33:00,
2013-01-26 07:42:00,27.0,24.0,30.30,WNW,286,14.0,-999.0,87,-99.99,,,-99.99,,2013-01-26 12:42:00,
2013-01-26 07:53:00,27.0,24.0,30.32,NNE,25,12.0,-999.0,87,-99.99,,,-99.99,,2013-01-26 12:53:00,
2013-01-26 08:12:00,26.0,23.0,30.32,NW,313,12.0,-999.0,87,-99.99,,,-99.99,,2013-01-26 13:12:00,
2013-01-26 08:22:00,26.0,22.0,30.33,NW,326,10.0,-999.0,86,-99.99,,,-99.99,,2013-01-26 13:22:00,
2013-01-26 08:33:00,26.0,22.0,30.33,NW,317,9.0,-999.0,86,-99.99,,,-99.99,,2013-01-26 13:33:00,
2013-01-26 08:42:00,26.0,22.0,30.33,NW,317,9.0,-999.0,86,-99.99,,,-99.99,,2013-01-26 13:42:00,
2013-01-26 08:52:00,26.0,22.0,30.34,WNW,292,11.0,-999.0,86,-99.99,,,-99.99,,2013-01-26 13:52:00,
2013-01-26 09:03:00,26.0,23.0,30.34,WNW,300,9.0,-999.0,87,-99.99,,,-99.99,,2013-01-26 14:03:00,
2013-01-26 09:12:00,26.0,23.0,30.34,WNW,300,9.0,-999.0,87,-99.99,,,-99.99,,2013-01-26 14:12:00,
2013-01-26 09:22:00,26.0,23.0,30.34,WNW,300,9.0,-999.0,87,-99.99,,,-99.99,,2013-01-26 14:22:00,
2013-01-26 09:32:00,27.0,23.0,30.35,NNW,347,12.0,-999.0,83,-99.99,,,-99.99,,2013-01-26 14:32:00,
2013-01-26 09:43:00,27.0,23.0,30.35,NNW,347,12.0,-999.0,83,-99.99,,,-99.99,,2013-01-26 14:43:00,
2013-01-26 09:53:00,27.0,22.0,30.36,NNW,339,11.0,-999.0,82,-99.99,,,-99.99,,2013-01-26 14:53:00,
2013-01-26 10:03:00,27.0,22.0,30.37,WNW,292,12.0,-999.0,81,-99.99,,,-99.99,,2013-01-26 15:03:00,
2013-01-26 10:12:00,27.0,22.0,30.37,WNW,292,12.0,-999.0,81,-99.99,,,-99.99,,2013-01-26 15:12:00,
2013-01-26 10:22:00,28.0,22.0,30.37,WNW,301,12.0,-999.0,79,-99.99,,,-99.99,,2013-01-26 15:22:00,
2013-01-26 10:33:00,28.0,22.0,30.38,NNW,329,14.0,-999.0,79,-99.99,,,-99.99,,2013-01-26 15:33:00,
2013-01-26 10:43:00,28.0,22.0,30.38,NNW,329,14.0,-999.0,79,-99.99,,,-99.99,,2013-01-26 15:43:00,
2013-01-26 10:52:00,29.0,23.0,30.38,NNW,333,13.0,-999.0,78,-99.99,,,-99.99,,2013-01-26 15:52:00,
2013-01-26 11:02:00,29.0,23.0,30.39,NW,321,13.0,-999.0,78,-99.99,,,-99.99,,2013-01-26 16:02:00,
2013-01-26 11:12:00,29.0,23.0,30.39,NW,321,13.0,-999.0,78,-99.99,,,-99.99,,2013-01-26 16:12:00,
2013-01-26 11:22:00,29.0,23.0,30.39,NW,311,13.0,-999.0,78,-99.99,,,-99.99,,2013-01-26 16:22:00,
2013-01-26 11:33:00,29.0,23.0,30.39,NW,307,14.0,-999.0,79,-99.99,,,-99.99,,2013-01-26 16:33:00,
2013-01-26 11:43:00,29.0,23.0,30.39,NW,307,14.0,-999.0,79,-99.99,,,-99.99,,2013-01-26 16:43:00,
2013-01-26 11:53:00,30.0,24.0,30.39,NW,317,15.0,-999.0,78,-99.99,,,-99.99,,2013-01-26 16:53:00,
2013-01-26 12:03:00,29.0,23.0,30.39,NW,304,16.0,-999.0,78,-99.99,,,-99.99,,2013-01-26 17:03:00,
2013-01-26 12:13:00,29.0,23.0,30.39,NW,304,16.0,-999.0,78,-99.99,,,-99.99,,2013-01-26 17:13:00,
2013-01-26 12:22:00,30.0,24.0,30.39,WNW,292,12.0,-999.0,78,-99.99,,,-99.99,,2013-01-26 17:22:00,
2013-01-26 12:33:00,30.0,24.0,30.39,WNW,287,10.0,-999.0,77,-99.99,,,-99.99,,2013-01-26 17:33:00,
2013-01-26 12:42:00,30.0,24.0,30.39,WNW,287,10.0,-999.0,77,-99.99,,,-99.99,,2013-01-26 17:42:00,
2013-01-26 12:52:00,30.0,24.0,30.39,West,278,13.0,-999.0,78,-99.99,,,-99.99,,2013-01-26 17:52:00,
2013-01-26 13:03:00,30.0,24.0,30.39,West,277,13.0,-999.0,78,-99.99,,,-99.99,,2013-01-26 18:03:00,
2013-01-26 13:12:00,30.0,24.0,30.39,West,277,13.0,-999.0,78,-99.99,,,-99.99,,2013-01-26 18:12:00,
2013-01-26 13:22:00,31.0,25.0,30.38,NW,321,12.0,-999.0,79,-99.99,,,-99.99,,2013-01-26 18:22:00,
2013-01-26 13:33:00,31.0,25.0,30.37,WNW,294,11.0,-999.0,79,-99.99,,,-99.99,,2013-01-26 18:33:00,
2013-01-26 13:42:00,31.0,25.0,30.37,WNW,294,11.0,-999.0,79,-99.99,,,-99.99,,2013-01-26 18:42:00,
2013-01-26 13:52:00,30.0,25.0,30.37,WNW,294,10.0,-999.0,81,-99.99,,,-99.99,,2013-01-26 18:52:00,
2013-01-26 14:03:00,30.0,25.0,30.37,NW,307,8.0,-999.0,81,-99.99,,,-99.99,,2013-01-26 19:03:00,
2013-01-26 14:12:00,30.0,25.0,30.37,NW,307,8.0,-999.0,81,-99.99,,,-99.99,,2013-01-26 19:12:00,
2013-01-26 14:22:00,30.0,25.0,30.38,WNW,284,13.0,-999.0,82,-99.99,,,-99.99,,2013-01-26 19:22:00,
2013-01-26 14:33:00,30.0,25.0,30.37,WNW,286,10.0,-999.0,80,-99.99,,,-99.99,,2013-01-26 19:33:00,
2013-01-26 14:42:00,30.0,25.0,30.37,WNW,286,10.0,-999.0,80,-99.99,,,-99.99,,2013-01-26 19:42:00,
2013-01-26 14:52:00,30.0,25.0,30.37,NW,304,10.0,-999.0,82,-99.99,,,-99.99,,2013-01-26 19:52:00,
2013-01-26 15:02:00,30.0,25.0,30.37,WNW,300,8.0,-999.0,82,-99.99,,,-99.99,,2013-01-26 20:02:00,
2013-01-26 15:12:00,30.0,25.0,30.37,WNW,300,8.0,-999.0,82,-99.99,,,-99.99,,2013-01-26 20:12:00,
2013-01-26 15:22:00,29.0,25.0,30.37,WNW,290,11.0,-999.0,83,-99.99,,,-99.99,,2013-01-26 20:22:00,
2013-01-26 15:32:00,30.0,25.0,30.37,NNW,338,10.0,-999.0,83,-99.99,,,-99.99,,2013-01-26 20:32:00,
2013-01-26 15:42:00,30.0,25.0,30.37,NNW,338,10.0,-999.0,83,-99.99,,,-99.99,,2013-01-26 20:42:00,
2013-01-26 15:52:00,30.0,25.0,30.37,NNW,338,10.0,-999.0,83,-99.99,,,-99.99,,2013-01-26 20:52:00,
2013-01-26 16:03:00,30.0,25.0,30.39,NNW,327,11.0,-999.0,81,-99.99,,,-99.99,,2013-01-26 21:03:00,
2013-01-26 16:12:00,30.0,25.0,30.39,NNW,327,11.0,-999.0,81,-99.99,,,-99.99,,2013-01-26 21:12:00,
2013-01-26 16:23:00,31.0,26.0,30.40,West,275,11.0,-999.0,80,-99.99,,,-99.99,,2013-01-26 21:23:00,
2013-01-26 16:32:00,31.0,26.0,30.40,NNW,327,11.0,-999.0,80,-99.99,,,-99.99,,2013-01-26 21:32:00,
2013-01-26 16:43:00,31.0,26.0,30.40,NNW,327,11.0,-999.0,80,-99.99,,,-99.99,,2013-01-26 21:43:00,
2013-01-26 16:52:00,31.0,26.0,30.40,NNW,329,10.0,-999.0,80,-99.99,,,-99.99,,2013-01-26 21:52:00,
2013-01-26 17:02:00,31.0,26.0,30.40,West,279,11.0,-999.0,81,-99.99,,,-99.99,,2013-01-26 22:02:00,
2013-01-26 17:12:00,31.0,26.0,30.40,West,279,11.0,-999.0,81,-99.99,,,-99.99,,2013-01-26 22:12:00,
2013-01-26 17:22:00,30.0,25.0,30.40,WNW,289,12.0,-999.0,82,-99.99,,,-99.99,,2013-01-26 22:22:00,
2013-01-26 17:32:00,30.0,25.0,30.41,NW,306,9.0,-999.0,83,-99.99,,,-99.99,,2013-01-26 22:32:00,
2013-01-26 17:42:00,30.0,25.0,30.41,NW,306,9.0,-999.0,83,-99.99,,,-99.99,,2013-01-26 22:42:00,
2013-01-26 17:52:00,29.0,25.0,30.42,NW,324,12.0,-999.0,84,-99.99,,,-99.99,,2013-01-26 22:52:00,
2013-01-26 18:02:00,29.0,25.0,30.42,West,270,12.0,-999.0,84,-99.99,,,-99.99,,2013-01-26 23:02:00,
2013-01-26 18:12:00,29.0,25.0,30.42,West,270,12.0,-999.0,84,-99.99,,,-99.99,,2013-01-26 23:12:00,
2013-01-26 18:22:00,29.0,25.0,30.42,NW,304,10.0,-999.0,84,-99.99,,,-99.99,,2013-01-26 23:22:00,
2013-01-26 18:32:00,29.0,25.0,30.42,WNW,286,9.0,-999.0,85,-99.99,,,-99.99,,2013-01-26 23:32:00,
2013-01-26 18:42:00,29.0,25.0,30.42,WNW,286,9.0,-999.0,85,-99.99,,,-99.99,,2013-01-26 23:42:00,
2013-01-26 18:52:00,28.0,24.0,30.43,NW,311,9.0,-999.0,85,-99.99,,,-99.99,,2013-01-26 23:52:00,
2013-01-26 19:02:00,28.0,24.0,30.43,WNW,302,10.0,-999.0,85,-99.99,,,-99.99,,2013-01-27 00:02:00,
2013-01-26 19:12:00,28.0,24.0,30.43,WNW,302,10.0,-999.0,85,-99.99,,,-99.99,,2013-01-27 00:12:00,
2013-01-26 19:22:00,28.0,24.0,30.44,NW,312,11.0,-999.0,86,-99.99,,,-99.99,,2013-01-27 00:22:00,
2013-01-26 19:32:00,28.0,24.0,30.44,NW,313,9.0,-999.0,86,-99.99,,,-99.99,,2013-01-27 00:32:00,
2013-01-26 19:42:00,28.0,24.0,30.44,NW,313,9.0,-999.0,86,-99.99,,,-99.99,,2013-01-27 00:42:00,
2013-01-26 19:51:00,28.0,24.0,30.44,NNW,331,9.0,-999.0,86,-99.99,,,-99.99,,2013-01-27 00:51:00,
2013-01-26 20:02:00,28.0,24.0,30.45,NW,326,9.0,-999.0,86,-99.99,,,-99.99,,2013-01-27 01:02:00,
2013-01-26 20:11:00,28.0,24.0,30.45,NW,326,9.0,-999.0,86,-99.99,,,-99.99,,2013-01-27 01:11:00,
2013-01-26 20:22:00,27.0,23.0,30.45,NW,304,10.0,-999.0,86,-99.99,,,-99.99,,2013-01-27 01:22:00,
2013-01-26 20:32:00,27.0,24.0,30.45,NW,316,10.0,-999.0,87,-99.99,,,-99.99,,2013-01-27 01:32:00,
2013-01-26 20:42:00,27.0,24.0,30.45,NW,316,10.0,-999.0,87,-99.99,,,-99.99,,2013-01-27 01:42:00,
2013-01-26 20:52:00,27.0,24.0,30.46,WNW,288,11.0,-999.0,87,-99.99,,,-99.99,,2013-01-27 01:52:00,
2013-01-26 21:01:00,27.0,24.0,30.47,West,281,10.0,-999.0,87,-99.99,,,-99.99,,2013-01-27 02:01:00,
2013-01-26 21:12:00,27.0,24.0,30.47,West,281,10.0,-999.0,87,-99.99,,,-99.99,,2013-01-27 02:12:00,
2013-01-26 21:22:00,27.0,24.0,30.47,NW,323,12.0,-999.0,87,-99.99,,,-99.99,,2013-01-27 02:22:00,
2013-01-26 21:32:00,27.0,24.0,30.48,WNW,286,10.0,-999.0,87,-99.99,,,-99.99,,2013-01-27 02:32:00,
2013-01-26 21:42:00,27.0,24.0,30.48,WNW,286,10.0,-999.0,87,-99.99,,,-99.99,,2013-01-27 02:42:00,
2013-01-26 21:52:00,27.0,24.0,30.48,WNW,298,9.0,-999.0,87,-99.99,,,-99.99,,2013-01-27 02:52:00,
2013-01-26 22:02:00,27.0,24.0,30.48,West,279,10.0,-999.0,87,-99.99,,,-99.99,,2013-01-27 03:02:00,
2013-01-26 22:11:00,27.0,24.0,30.48,West,279,10.0,-999.0,87,-99.99,,,-99.99,,2013-01-27 03:11:00,
2013-01-26 22:21:00,26.0,23.0,30.49,WNW,298,7.0,-999.0,87,-99.99,,,-99.99,,2013-01-27 03:21:00,
2013-01-26 22:32:00,26.0,23.0,30.50,NNW,331,4.0,-999.0,87,-99.99,,,-99.99,,2013-01-27 03:32:00,
2013-01-26 22:42:00,26.0,23.0,30.50,NNW,331,4.0,-999.0,87,-99.99,,,-99.99,,2013-01-27 03:42:00,
2013-01-26 22:51:00,26.0,23.0,30.51,East,86,2.0,-999.0,88,-99.99,,,-99.99,,2013-01-27 03:51:00,
2013-01-26 23:02:00,25.0,22.0,30.52,North,355,2.0,-999.0,89,-99.99,,,-99.99,,2013-01-27 04:02:00,
2013-01-26 23:12:00,25.0,22.0,30.52,North,355,2.0,-999.0,89,-99.99,,,-99.99,,2013-01-27 04:12:00,
2013-01-26 23:22:00,25.0,22.0,30.51,NW,313,5.0,-999.0,89,-99.99,,,-99.99,,2013-01-27 04:22:00,
2013-01-26 23:32:00,25.0,22.0,30.52,NNE,13,6.0,-999.0,89,-99.99,,,-99.99,,2013-01-27 04:32:00,
2013-01-26 23:42:00,25.0,22.0,30.52,NNE,13,6.0,-999.0,89,-99.99,,,-99.99,,2013-01-27 04:42:00,
2013-01-26 23:51:00,25.0,22.0,30.52,North,5,5.0,-999.0,88,-99.99,,,-99.99,,2013-01-27 04:51:00,